TimeEST,TemperatureF,Dew PointF,Humidity,Sea Level PressureIn,VisibilityMPH,Wind Direction,Wind SpeedMPH,Gust SpeedMPH,PrecipitationIn,Events,Conditions,WindDirDegrees,DateUTC
12:53 AM,70.0,66.0,87,30.09,10.0,Calm,Calm,-,N/A,,Partly Cloudy,0,2013-02-21 05:53:00
1:53 AM,70.0,66.0,87,30.06,10.0,East,3.5,-,N/A,,Overcast,90,2013-02-21 06:53:00
2:53 AM,70.0,64.9,84,30.04,10.0,ESE,4.6,-,N/A,,Clear,110,2013-02-21 07:53:00
3:53 AM,70.0,64.9,84,30.02,10.0,SE,4.6,-,N/A,,Clear,130,2013-02-21 08:53:00
4:53 AM,69.1,64.0,84,30.03,10.0,ESE,3.5,-,N/A,,Clear,110,2013-02-21 09:53:00
6:53 AM,66.0,63.0,90,30.07,10.0,Calm,Calm,-,N/A,,Clear,0,2013-02-21 11:53:00
7:53 AM,70.0,66.9,90,30.09,10.0,Calm,Calm,-,N/A,,Clear,0,2013-02-21 12:53:00
8:53 AM,75.9,64.0,67,30.11,10.0,ESE,8.1,-,N/A,,Clear,120,2013-02-21 13:53:00
9:53 AM,79.0,63.0,58,30.11,10.0,SE,12.7,-,N/A,,Partly Cloudy,140,2013-02-21 14:53:00
10:53 AM,80.1,62.1,54,30.11,10.0,ESE,11.5,-,N/A,,Partly Cloudy,110,2013-02-21 15:53:00
11:53 AM,80.1,62.1,54,30.11,10.0,ESE,11.5,-,N/A,,Partly Cloudy,120,2013-02-21 16:53:00
12:53 PM,81.0,63.0,54,30.09,10.0,ESE,11.5,-,N/A,,Mostly Cloudy,120,2013-02-21 17:53:00
1:53 PM,80.1,63.0,56,30.07,10.0,East,12.7,-,N/A,,Scattered Clouds,90,2013-02-21 18:53:00
2:53 PM,81.0,63.0,54,30.06,10.0,ESE,11.5,-,N/A,,Partly Cloudy,110,2013-02-21 19:53:00
3:53 PM,79.0,64.0,60,30.05,10.0,East,10.4,-,N/A,,Clear,100,2013-02-21 20:53:00
4:53 PM,77.0,64.0,64,30.06,10.0,East,11.5,-,N/A,,Clear,100,2013-02-21 21:53:00
5:53 PM,75.0,64.9,71,30.06,10.0,ESE,9.2,-,N/A,,Clear,110,2013-02-21 22:53:00
6:53 PM,73.9,64.9,73,30.06,10.0,ESE,6.9,-,N/A,,Clear,110,2013-02-21 23:53:00
7:53 PM,73.0,64.9,76,30.07,10.0,ESE,6.9,-,N/A,,Clear,120,2013-02-22 00:53:00
8:53 PM,72.0,64.0,76,30.08,10.0,East,6.9,-,N/A,,Clear,100,2013-02-22 01:53:00
9:53 PM,72.0,64.0,76,30.08,10.0,ESE,6.9,-,N/A,,Clear,110,2013-02-22 02:53:00
10:53 PM,72.0,64.9,78,30.09,10.0,ESE,5.8,-,N/A,,Clear,110,2013-02-22 03:53:00
11:53 PM,72.0,66.0,81,30.08,10.0,ESE,8.1,-,N/A,,Partly Cloudy,120,2013-02-22 04:53:00